Time,TemperatureF,DewpointF,PressureIn,WindDirection,WindDirectionDegrees,WindSpeedMPH,WindSpeedGustMPH,Humidity,HourlyPrecipIn,Conditions,Clouds,dailyrainin,SoftwareType,DateUTC
2013-03-08 00:01:00,20.0,15.0,-100.00,NNW,340,0.0,1.0,82,-99.99,,,-99.99,,2013-03-08 06:01:00,
2013-03-08 00:22:00,21.0,17.0,-100.00,NNE,15,1.0,1.0,86,-99.99,,,-99.99,,2013-03-08 06:22:00,
2013-03-08 00:32:00,21.0,17.0,-100.00,NNE,15,1.0,1.0,86,-99.99,,,-99.99,,2013-03-08 06:32:00,
2013-03-08 00:42:00,21.0,17.0,-100.00,NNE,15,1.0,1.0,86,-99.99,,,-99.99,,2013-03-08 06:42:00,
2013-03-08 00:52:00,21.0,17.0,-100.00,NNE,15,1.0,1.0,86,-99.99,,,-99.99,,2013-03-08 06:52:00,
2013-03-08 01:01:00,21.0,17.0,-100.00,NNE,15,1.0,1.0,86,-99.99,,,-99.99,,2013-03-08 07:01:00,
2013-03-08 01:22:00,18.0,15.0,-100.00,NNE,25,0.0,2.0,88,-99.99,,,-99.99,,2013-03-08 07:22:00,
2013-03-08 01:32:00,18.0,15.0,-100.00,NNE,25,0.0,2.0,88,-99.99,,,-99.99,,2013-03-08 07:32:00,
2013-03-08 01:42:00,18.0,15.0,-100.00,NNE,25,0.0,2.0,88,-99.99,,,-99.99,,2013-03-08 07:42:00,
2013-03-08 01:52:00,18.0,15.0,-100.00,NNE,25,0.0,2.0,88,-99.99,,,-99.99,,2013-03-08 07:52:00,
2013-03-08 02:01:00,18.0,15.0,-100.00,NNE,25,0.0,2.0,88,-99.99,,,-99.99,,2013-03-08 08:01:00,
2013-03-08 02:02:00,17.0,13.0,-100.00,West,270,0.0,0.0,88,-99.99,,,-99.99,,2013-03-08 08:02:00,
2013-03-08 02:22:00,17.0,13.0,-100.00,West,270,0.0,0.0,88,-99.99,,,-99.99,,2013-03-08 08:22:00,
2013-03-08 02:32:00,17.0,13.0,-100.00,West,270,0.0,0.0,88,-99.99,,,-99.99,,2013-03-08 08:32:00,
2013-03-08 02:42:00,17.0,13.0,-100.00,West,270,0.0,0.0,88,-99.99,,,-99.99,,2013-03-08 08:42:00,
2013-03-08 02:52:00,17.0,13.0,-100.00,West,270,0.0,0.0,88,-99.99,,,-99.99,,2013-03-08 08:52:00,
2013-03-08 03:22:00,15.0,12.0,-100.00,West,270,0.0,0.0,89,-99.99,,,-99.99,,2013-03-08 09:22:00,
2013-03-08 03:32:00,15.0,12.0,-100.00,West,270,0.0,0.0,89,-99.99,,,-99.99,,2013-03-08 09:32:00,
2013-03-08 03:42:00,15.0,12.0,-100.00,West,270,0.0,0.0,89,-99.99,,,-99.99,,2013-03-08 09:42:00,
2013-03-08 03:52:00,15.0,12.0,-100.00,West,270,0.0,0.0,89,-99.99,,,-99.99,,2013-03-08 09:52:00,
2013-03-08 04:01:00,15.0,12.0,-100.00,West,270,0.0,0.0,89,-99.99,,,-99.99,,2013-03-08 10:01:00,
2013-03-08 04:21:00,15.0,12.0,-100.00,North,10,0.0,0.0,89,-99.99,,,-99.99,,2013-03-08 10:21:00,
2013-03-08 04:32:00,15.0,12.0,-100.00,North,10,0.0,0.0,89,-99.99,,,-99.99,,2013-03-08 10:32:00,
2013-03-08 04:42:00,15.0,12.0,-100.00,North,10,0.0,0.0,89,-99.99,,,-99.99,,2013-03-08 10:42:00,
2013-03-08 04:52:00,15.0,12.0,-100.00,North,10,0.0,0.0,89,-99.99,,,-99.99,,2013-03-08 10:52:00,
2013-03-08 05:01:00,15.0,12.0,-100.00,North,10,0.0,0.0,89,-99.99,,,-99.99,,2013-03-08 11:01:00,
2013-03-08 05:22:00,13.0,11.0,-100.00,West,280,0.0,0.0,89,-99.99,,,-99.99,,2013-03-08 11:22:00,
2013-03-08 05:32:00,13.0,11.0,-100.00,West,280,0.0,0.0,89,-99.99,,,-99.99,,2013-03-08 11:32:00,
2013-03-08 05:42:00,13.0,11.0,-100.00,West,280,0.0,0.0,89,-99.99,,,-99.99,,2013-03-08 11:42:00,
2013-03-08 05:52:00,13.0,11.0,-100.00,West,280,0.0,0.0,89,-99.99,,,-99.99,,2013-03-08 11:52:00,
2013-03-08 06:01:00,13.0,11.0,-100.00,West,280,0.0,0.0,89,-99.99,,,-99.99,,2013-03-08 12:01:00,
2013-03-08 06:22:00,13.0,10.0,-100.00,WNW,300,0.0,1.0,89,-99.99,,,-99.99,,2013-03-08 12:22:00,
2013-03-08 06:32:00,13.0,10.0,-100.00,WNW,300,0.0,1.0,89,-99.99,,,-99.99,,2013-03-08 12:32:00,
2013-03-08 06:43:00,13.0,10.0,-100.00,WNW,300,0.0,1.0,89,-99.99,,,-99.99,,2013-03-08 12:43:00,
2013-03-08 06:53:00,13.0,10.0,-100.00,WNW,300,0.0,1.0,89,-99.99,,,-99.99,,2013-03-08 12:53:00,
2013-03-08 07:01:00,13.0,10.0,-100.00,WNW,300,0.0,1.0,89,-99.99,,,-99.99,,2013-03-08 13:01:00,
2013-03-08 08:02:00,27.0,23.0,-100.00,NNE,30,1.0,14.0,88,-99.99,,,-99.99,,2013-03-08 14:02:00,
2013-03-08 08:22:00,27.0,23.0,-100.00,NNE,30,1.0,14.0,88,-99.99,,,-99.99,,2013-03-08 14:22:00,
2013-03-08 08:32:00,27.0,23.0,-100.00,NNE,30,1.0,14.0,88,-99.99,,,-99.99,,2013-03-08 14:32:00,
2013-03-08 08:42:00,27.0,23.0,-100.00,NNE,30,1.0,14.0,88,-99.99,,,-99.99,,2013-03-08 14:42:00,
2013-03-08 08:52:00,27.0,23.0,-100.00,NNE,30,1.0,14.0,88,-99.99,,,-99.99,,2013-03-08 14:52:00,
2013-03-08 09:22:00,34.0,22.0,-100.00,East,85,6.0,9.0,60,-99.99,,,-99.99,,2013-03-08 15:22:00,
2013-03-08 09:32:00,34.0,22.0,-100.00,East,85,6.0,9.0,60,-99.99,,,-99.99,,2013-03-08 15:32:00,
2013-03-08 09:43:00,34.0,22.0,-100.00,East,85,6.0,9.0,60,-99.99,,,-99.99,,2013-03-08 15:43:00,
2013-03-08 09:53:00,34.0,22.0,-100.00,East,85,6.0,9.0,60,-99.99,,,-99.99,,2013-03-08 15:53:00,
2013-03-08 10:01:00,34.0,22.0,-100.00,East,85,6.0,9.0,60,-99.99,,,-99.99,,2013-03-08 16:01:00,
2013-03-08 10:02:00,37.0,21.0,-100.00,ENE,75,7.0,12.0,52,-99.99,,,-99.99,,2013-03-08 16:02:00,
2013-03-08 10:22:00,37.0,21.0,-100.00,ENE,75,7.0,12.0,52,-99.99,,,-99.99,,2013-03-08 16:22:00,
2013-03-08 10:32:00,37.0,21.0,-100.00,ENE,75,7.0,12.0,52,-99.99,,,-99.99,,2013-03-08 16:32:00,
2013-03-08 10:42:00,37.0,21.0,-100.00,ENE,75,7.0,12.0,52,-99.99,,,-99.99,,2013-03-08 16:42:00,
2013-03-08 10:52:00,37.0,21.0,-100.00,ENE,75,7.0,12.0,52,-99.99,,,-99.99,,2013-03-08 16:52:00,
2013-03-08 11:02:00,39.0,21.0,-100.00,East,90,7.0,12.0,49,-99.99,,,-99.99,,2013-03-08 17:02:00,
2013-03-08 11:22:00,39.0,21.0,-100.00,East,90,7.0,12.0,49,-99.99,,,-99.99,,2013-03-08 17:22:00,
2013-03-08 11:32:00,39.0,21.0,-100.00,East,90,7.0,12.0,49,-99.99,,,-99.99,,2013-03-08 17:32:00,
2013-03-08 11:42:00,39.0,21.0,-100.00,East,90,7.0,12.0,49,-99.99,,,-99.99,,2013-03-08 17:42:00,
2013-03-08 11:52:00,39.0,21.0,-100.00,East,90,7.0,12.0,49,-99.99,,,-99.99,,2013-03-08 17:52:00,
2013-03-08 12:22:00,39.0,21.0,-100.00,ENE,70,7.0,12.0,48,-99.99,,,-99.99,,2013-03-08 18:22:00,
2013-03-08 12:32:00,39.0,21.0,-100.00,ENE,70,7.0,12.0,48,-99.99,,,-99.99,,2013-03-08 18:32:00,
2013-03-08 12:42:00,39.0,21.0,-100.00,ENE,70,7.0,12.0,48,-99.99,,,-99.99,,2013-03-08 18:42:00,
2013-03-08 12:52:00,39.0,21.0,-100.00,ENE,70,7.0,12.0,48,-99.99,,,-99.99,,2013-03-08 18:52:00,
2013-03-08 13:01:00,39.0,21.0,-100.00,ENE,70,7.0,12.0,48,-99.99,,,-99.99,,2013-03-08 19:01:00,
2013-03-08 13:22:00,41.0,21.0,-100.00,East,85,6.0,11.0,45,-99.99,,,-99.99,,2013-03-08 19:22:00,
2013-03-08 13:32:00,41.0,21.0,-100.00,East,85,6.0,11.0,45,-99.99,,,-99.99,,2013-03-08 19:32:00,
2013-03-08 13:42:00,41.0,21.0,-100.00,East,85,6.0,11.0,45,-99.99,,,-99.99,,2013-03-08 19:42:00,
2013-03-08 13:52:00,41.0,21.0,-100.00,East,85,6.0,11.0,45,-99.99,,,-99.99,,2013-03-08 19:52:00,
2013-03-08 14:01:00,41.0,21.0,-100.00,East,85,6.0,11.0,45,-99.99,,,-99.99,,2013-03-08 20:01:00,
2013-03-08 15:22:00,42.0,21.0,-100.00,SE,135,3.0,9.0,43,-99.99,,,-99.99,,2013-03-08 21:22:00,
2013-03-08 15:33:00,42.0,21.0,-100.00,SE,135,3.0,9.0,43,-99.99,,,-99.99,,2013-03-08 21:33:00,
2013-03-08 15:42:00,42.0,21.0,-100.00,SE,135,3.0,9.0,43,-99.99,,,-99.99,,2013-03-08 21:42:00,
2013-03-08 15:52:00,42.0,21.0,-100.00,SE,135,3.0,9.0,43,-99.99,,,-99.99,,2013-03-08 21:52:00,
2013-03-08 16:01:00,42.0,21.0,-100.00,SE,135,3.0,9.0,43,-99.99,,,-99.99,,2013-03-08 22:01:00,
2013-03-08 20:21:00,30.0,23.0,-100.00,SE,125,0.0,6.0,74,-99.99,,,-99.99,,2013-03-09 02:21:00,
2013-03-08 20:31:00,30.0,23.0,-100.00,SE,125,0.0,6.0,74,-99.99,,,-99.99,,2013-03-09 02:31:00,
2013-03-08 20:41:00,30.0,23.0,-100.00,SE,125,0.0,6.0,74,-99.99,,,-99.99,,2013-03-09 02:41:00,
2013-03-08 20:51:00,30.0,23.0,-100.00,SE,125,0.0,6.0,74,-99.99,,,-99.99,,2013-03-09 02:51:00,
2013-03-08 21:01:00,30.0,23.0,-100.00,SE,125,0.0,6.0,74,-99.99,,,-99.99,,2013-03-09 03:01:00,
2013-03-08 21:22:00,30.0,24.0,-100.00,ESE,115,1.0,5.0,78,-99.99,,,-99.99,,2013-03-09 03:22:00,
2013-03-08 21:32:00,30.0,24.0,-100.00,ESE,115,1.0,5.0,78,-99.99,,,-99.99,,2013-03-09 03:32:00,
2013-03-08 21:42:00,30.0,24.0,-100.00,ESE,115,1.0,5.0,78,-99.99,,,-99.99,,2013-03-09 03:42:00,
2013-03-08 21:52:00,30.0,24.0,-100.00,ESE,115,1.0,5.0,78,-99.99,,,-99.99,,2013-03-09 03:52:00,
2013-03-08 22:01:00,30.0,24.0,-100.00,ESE,115,1.0,5.0,78,-99.99,,,-99.99,,2013-03-09 04:01:00,
2013-03-08 22:22:00,30.0,24.0,-100.00,ENE,75,2.0,6.0,79,-99.99,,,-99.99,,2013-03-09 04:22:00,
2013-03-08 22:32:00,30.0,24.0,-100.00,ENE,75,2.0,6.0,79,-99.99,,,-99.99,,2013-03-09 04:32:00,
2013-03-08 22:42:00,30.0,24.0,-100.00,ENE,75,2.0,6.0,79,-99.99,,,-99.99,,2013-03-09 04:42:00,
2013-03-08 22:52:00,30.0,24.0,-100.00,ENE,75,2.0,6.0,79,-99.99,,,-99.99,,2013-03-09 04:52:00,
2013-03-08 23:02:00,30.0,24.0,-100.00,ENE,75,2.0,6.0,79,-99.99,,,-99.99,,2013-03-09 05:02:00,
2013-03-08 23:22:00,31.0,23.0,-100.00,East,85,5.0,11.0,71,-99.99,,,-99.99,,2013-03-09 05:22:00,
2013-03-08 23:32:00,31.0,23.0,-100.00,East,85,5.0,11.0,71,-99.99,,,-99.99,,2013-03-09 05:32:00,
2013-03-08 23:43:00,31.0,23.0,-100.00,East,85,5.0,11.0,71,-99.99,,,-99.99,,2013-03-09 05:43:00,
2013-03-08 23:53:00,31.0,23.0,-100.00,East,85,5.0,11.0,71,-99.99,,,-99.99,,2013-03-09 05:53:00,